Location: ????????
(38.4362°N, 22.8767°E)
Time: 13:07:18
(UTC+00:00)

FENGYUN 1C DEB - Pass Details

Date: 15 October 2025
Orbit: 841 x 1273 km, 99.2° (Epoch: 16 November)

Event Time Altitude Azimuth Distance (km) Brightness Sun altitude
Rises 01:38:54 0° 38° (NE) 3,403 ? -35.3°
Reaches altitude 10° 01:42:51 10° 67° (ENE) 2,481 ? -34.6°
Maximum altitude 01:45:05 12° 92° (E) 2,326 ? -34.2°
Drops below altitude 10° 01:47:20 10° 116° (ESE) 2,524 ? -33.8°
Sets 01:51:25 0° 145° (SE) 3,527 ? -33.0°
